NC9W-13 Weather Reports


time (UTC)temp
F
wind
direction
speed
knots
gust
knots
rain 1hr
in
rain 24hr
in
rain mn
in
humidity
%
barometer
mb
20260504014217 52 0 0.0 0.0 0.00 0.00 0.00 65 1013.5
20260504013718 52 0 0.0 0.0 0.00 0.00 0.00 64 1013.4
20260504013003 52 0 0.0 0.0 0.00 0.00 0.00 63 1013.2
20260504012503 53 0 0.0 0.0 0.00 0.00 0.00 63 1013.1
20260504012003 53 0 0.0 0.0 0.00 0.00 0.00 62 1013.2
20260504011503 53 0 0.0 0.0 0.00 0.00 0.00 62 1013.2
20260504011003 54 0 0.0 0.0 0.00 0.00 0.00 61 1013.2
20260504010503 54 0 0.0 0.0 0.00 0.00 0.00 60 1013.3
20260504010003 55 0 0.0 0.0 0.00 0.00 0.00 59 1013.1
20260504005503 55 0 0.0 0.0 0.00 0.00 0.00 58 1013.1
20260504005003 56 0 0.0 0.0 0.00 0.00 0.00 58 1013.1
20260504004503 56 0 0.0 0.0 0.00 0.00 0.00 58 1013.1
20260504004003 56 0 0.0 0.0 0.00 0.00 0.00 56 1013.0
20260504003503 57 0 0.0 0.0 0.00 0.00 0.00 56 1013.0
20260504003003 57 0 0.0 0.0 0.00 0.00 0.00 55 1012.9
20260504002717 58 0 0.0 0.0 0.00 0.00 0.00 55 1013.0
20260504002003 58 0 0.0 0.0 0.00 0.00 0.00 55 1012.9
20260504001503 59 0 0.0 0.0 0.00 0.00 0.00 53 1012.9
20260504001003 59 0 0.0 0.0 0.00 0.00 0.00 54 1013.0
20260504000503 60 210 0.0 1.7 0.00 0.00 0.00 53 1013.0
20260504000219 60 210 0.0 5.2 0.00 0.00 0.00 52 1013.0
20260503235503 60 210 0.0 5.2 0.00 0.00 0.00 52 1013.1
20260503235003 61 210 0.0 5.2 0.00 0.00 0.00 53 1013.1
20260503234503 61 210 0.0 5.2 0.00 0.00 0.00 51 1013.0
20260503234218 61 210 0.0 1.7 0.00 0.00 0.00 51 1013.0
20260503233503 61 210 0.0 3.5 0.00 0.00 0.00 53 1013.0
20260503233003 61 210 0.0 3.5 0.00 0.00 0.00 52 1013.1
20260503232503 61 210 0.0 3.5 0.00 0.00 0.00 52 1013.1
20260503232003 61 210 0.0 1.7 0.00 0.00 0.00 53 1013.2
20260503231503 61 210 0.0 5.2 0.00 0.00 0.00 53 1013.4
20260503231003 61 210 0.0 5.2 0.00 0.00 0.00 48 1013.5
20260503230717 61 210 0.0 5.2 0.00 0.00 0.00 48 1013.5
20260503230003 62 210 0.0 3.5 0.00 0.00 0.00 47 1013.6
20260503225503 62 210 1.7 3.5 0.00 0.00 0.00 46 1013.8
20260503225003 62 210 1.7 5.2 0.00 0.00 0.00 48 1013.9
20260503224503 62 210 1.7 5.2 0.00 0.00 0.00 45 1014.0
20260503224218 62 210 1.7 5.2 0.00 0.00 0.00 45 1014.0
20260503223503 63 210 1.7 7.0 0.00 0.00 0.00 46 1013.9
20260503223003 63 210 1.7 7.0 0.00 0.00 0.00 48 1013.6
20260503222503 63 210 0.0 3.5 0.00 0.00 0.00 45 1013.8
20260503222003 63 210 0.0 3.5 0.00 0.00 0.00 46 1014.0
20260503221503 63 210 1.7 3.5 0.00 0.00 0.00 48 1014.2
20260503221003 63 210 1.7 3.5 0.00 0.00 0.00 48 1014.2
20260503220503 63 210 1.7 3.5 0.00 0.00 0.00 46 1014.3
20260503220003 63 210 0.0 3.5 0.00 0.00 0.00 47 1014.5
20260503215503 63 210 0.0 3.5 0.00 0.00 0.00 44 1014.5
20260503215003 63 210 1.7 3.5 0.00 0.00 0.00 44 1014.6
20260503214503 63 210 1.7 3.5 0.00 0.00 0.00 43 1014.7
20260503214003 63 210 1.7 5.2 0.00 0.00 0.00 43 1014.8
20260503213503 63 210 1.7 5.2 0.00 0.00 0.00 44 1014.7
20260503213003 63 210 1.7 13.9 0.00 0.00 0.00 44 1014.5
20260503212503 63 210 3.5 13.9 0.00 0.00 0.00 45 1014.3
20260503212003 63 210 1.7 5.2 0.00 0.00 0.00 45 1014.5
20260503211503 63 210 0.0 3.5 0.00 0.00 0.00 44 1014.7
20260503211003 63 210 1.7 5.2 0.00 0.00 0.00 44 1014.8
20260503210503 63 210 1.7 5.2 0.00 0.00 0.00 45 1014.8
20260503210003 64 210 1.7 5.2 0.00 0.00 0.00 40 1015.0
20260503205503 64 210 1.7 5.2 0.00 0.00 0.00 44 1014.9
20260503205003 64 210 1.7 7.0 0.00 0.00 0.00 45 1015.0
20260503204503 64 210 1.7 8.7 0.00 0.00 0.00 42 1015.0
20260503204003 64 210 1.7 8.7 0.00 0.00 0.00 43 1015.1
20260503203503 64 210 1.7 7.0 0.00 0.00 0.00 46 1015.2
20260503203003 64 210 3.5 8.7 0.00 0.00 0.00 40 1015.2
20260503202503 64 210 1.7 8.7 0.00 0.00 0.00 42 1015.3
20260503202003 64 210 1.7 5.2 0.00 0.00 0.00 42 1015.5
20260503201503 64 210 1.7 5.2 0.00 0.00 0.00 39 1015.6
20260503201217 64 210 1.7 5.2 0.00 0.00 0.00 40 1015.8
20260503200503 65 210 1.7 7.0 0.00 0.00 0.00 43 1016.1
20260503200003 65 210 1.7 10.4 0.00 0.00 0.00 43 1016.2
20260503195503 65 210 0.0 10.4 0.00 0.00 0.00 40 1016.4
20260503195003 65 210 0.0 3.5 0.00 0.00 0.00 40 1016.5
20260503194503 65 210 1.7 8.7 0.00 0.00 0.00 39 1016.5
20260503194216 65 210 1.7 8.7 0.00 0.00 0.00 39 1016.6
20260503193503 65 210 1.7 8.7 0.00 0.00 0.00 37 1016.7
20260503193003 65 210 1.7 10.4 0.00 0.00 0.00 38 1016.8
20260503192717 65 210 1.7 10.4 0.00 0.00 0.00 41 1016.9
20260503192003 65 210 1.7 7.0 0.00 0.00 0.00 40 1017.0
20260503191503 65 210 1.7 7.0 0.00 0.00 0.00 38 1017.1
20260503191003 66 210 0.0 7.0 0.00 0.00 0.00 39 1017.0
20260503190503 65 210 1.7 7.0 0.00 0.00 0.00 41 1017.2
20260503190003 65 210 1.7 7.0 0.00 0.00 0.00 39 1017.3
20260503185503 65 210 1.7 7.0 0.00 0.00 0.00 39 1017.3
20260503185003 66 210 1.7 7.0 0.00 0.00 0.00 38 1017.5
20260503184503 65 210 1.7 7.0 0.00 0.00 0.00 41 1017.5
20260503184003 65 210 1.7 7.0 0.00 0.00 0.00 40 1017.5
20260503183503 64 210 0.0 7.0 0.00 0.00 0.00 39 1017.6
20260503183003 64 210 0.0 7.0 0.00 0.00 0.00 37 1017.7
20260503182503 64 210 1.7 10.4 0.00 0.00 0.00 41 1017.8
20260503182003 64 210 3.5 10.4 0.00 0.00 0.00 37 1017.8
20260503181504 64 210 1.7 8.7 0.00 0.00 0.00 42 1017.9
20260503181218 64 210 1.7 8.7 0.00 0.00 0.00 40 1017.9
20260503180503 63 210 1.7 12.2 0.00 0.00 0.00 46 1018.0
20260503180004 64 210 3.5 12.2 0.00 0.00 0.00 37 1018.0
20260503175503 64 210 3.5 12.2 0.00 0.00 0.00 37 1018.1
20260503175003 64 210 3.5 12.2 0.00 0.00 0.00 41 1018.2
20260503174503 64 210 1.7 8.7 0.00 0.00 0.00 40 1018.4
20260503174003 63 210 1.7 7.0 0.00 0.00 0.00 37 1018.5
20260503173503 63 210 3.5 12.2 0.00 0.00 0.00 40 1018.7
20260503173218 63 210 3.5 12.2 0.00 0.00 0.00 39 1018.6
20260503172504 63 210 3.5 12.2 0.00 0.00 0.00 38 1018.8
20260503172003 63 210 3.5 8.7 0.00 0.00 0.00 38 1018.8
20260503171503 63 210 1.7 8.7 0.00 0.00 0.00 40 1018.8
20260503171003 63 210 1.7 7.0 0.00 0.00 0.00 42 1018.8
20260503170503 62 210 1.7 7.0 0.00 0.00 0.00 41 1018.9
20260503151003 60 210 3.5 10.4 0.00 0.00 0.00 45 1020.1
20260503150503 61 210 1.7 10.4 0.00 0.00 0.00 44 1020.1
20260503131003 54 210 1.7 8.7 0.00 0.00 0.00 64 1020.0
20260503130503 54 210 1.7 5.2 0.00 0.00 0.00 65 1020.0
20260503110503 33 0 0.0 0.0 0.00 0.00 0.00 93 1019.3
20260503090503 33 0 0.0 0.0 0.00 0.00 0.00 91 1018.9
20260503081503 33 0 0.0 0.0 0.00 0.00 0.00 90 1018.7
20260503081003 33 0 0.0 0.0 0.00 0.00 0.00 90 1018.7
20260503080503 34 0 0.0 0.0 0.00 0.00 0.00 90 1018.7
20260503072717 34 0 0.0 0.0 0.00 0.00 0.00 89 1018.4
20260503072003 35 0 0.0 0.0 0.00 0.00 0.00 89 1018.4
20260503071503 35 0 0.0 0.0 0.00 0.00 0.00 89 1018.4
20260503071003 35 0 0.0 0.0 0.00 0.00 0.00 89 1018.4
20260503070503 35 0 0.0 0.0 0.00 0.00 0.00 88 1018.4
20260503055003 38 0 0.0 0.0 0.00 0.00 0.00 86 1018.5
20260503054503 38 0 0.0 0.0 0.00 0.00 0.00 86 1018.6
20260503054003 38 0 0.0 0.0 0.00 0.00 0.00 86 1018.6
20260503053503 38 0 0.0 0.0 0.00 0.00 0.00 85 1018.6
20260503053217 39 0 0.0 0.0 0.00 0.00 0.00 85 1018.6
20260503052503 39 0 0.0 0.0 0.00 0.00 0.00 85 1018.6
20260503052003 39 0 0.0 0.0 0.00 0.00 0.00 85 1018.6
20260503051503 40 0 0.0 0.0 0.00 0.00 0.00 85 1018.5
20260503051003 40 0 0.0 0.0 0.00 0.00 0.00 84 1018.6
20260503050718 40 0 0.0 0.0 0.00 0.00 0.00 84 1018.6
20260503050003 40 0 0.0 0.0 0.00 0.00 0.00 84 1018.5
20260503045503 41 0 0.0 0.0 0.00 0.00 0.00 83 1018.5
20260503045003 41 0 0.0 0.0 0.00 0.00 0.00 83 1018.5
20260503044503 41 0 0.0 0.0 0.00 0.00 0.00 83 1018.5
20260503044003 41 0 0.0 0.0 0.00 0.00 0.00 82 1018.5
20260503043503 41 0 0.0 0.0 0.00 0.00 0.00 82 1018.5
20260503043003 41 0 0.0 0.0 0.00 0.00 0.00 81 1018.4
20260503042503 42 0 0.0 0.0 0.00 0.00 0.00 81 1018.4
20260503042003 42 0 0.0 0.0 0.00 0.00 0.00 81 1018.4
20260503041503 42 0 0.0 0.0 0.00 0.00 0.00 80 1018.4
20260503041003 42 0 0.0 0.0 0.00 0.00 0.00 80 1018.4
20260503040503 43 0 0.0 0.0 0.00 0.00 0.00 79 1018.3
20260503040003 43 0 0.0 0.0 0.00 0.00 0.00 79 1018.3
20260503035503 44 0 0.0 0.0 0.00 0.00 0.00 79 1018.2
20260503035003 44 0 0.0 0.0 0.00 0.00 0.00 79 1018.2
20260503034503 45 0 0.0 0.0 0.00 0.00 0.00 79 1018.2
20260503034003 45 0 0.0 0.0 0.00 0.00 0.00 79 1018.2
20260503033503 45 0 0.0 0.0 0.00 0.00 0.00 80 1018.2
20260503033003 45 0 0.0 0.0 0.00 0.00 0.00 82 1018.1
20260503032503 45 0 0.0 0.0 0.00 0.00 0.00 86 1018.1
20260503032216 45 0 0.0 0.0 0.00 0.00 0.00 87 1018.1
20260503031503 46 0 0.0 0.0 0.00 0.00 0.00 87 1018.0
20260503031003 46 0 0.0 0.0 0.00 0.00 0.00 87 1018.0
20260503030503 46 0 0.0 0.0 0.00 0.00 0.00 87 1018.0
20260503030003 46 0 0.0 0.0 0.00 0.00 0.00 86 1018.0
20260503025503 46 0 0.0 0.0 0.00 0.00 0.00 86 1017.9
20260503025003 45 0 0.0 0.0 0.00 0.00 0.00 85 1017.9
20260503024503 45 0 0.0 0.0 0.00 0.00 0.00 85 1017.7
20260503024003 45 0 0.0 0.0 0.00 0.00 0.00 85 1017.7
20260503023717 45 0 0.0 0.0 0.00 0.00 0.00 85 1017.7
20260503023218 46 0 0.0 0.0 0.00 0.00 0.00 85 1017.7
20260503022503 45 0 0.0 0.0 0.00 0.00 0.00 85 1017.6
20260503022003 45 0 0.0 0.0 0.00 0.00 0.00 83 1017.6
20260503021717 45 0 0.0 0.0 0.00 0.00 0.00 83 1017.6
20260503021003 45 0 0.0 0.0 0.00 0.00 0.00 83 1017.5
20260503020503 45 0 0.0 0.0 0.00 0.00 0.00 83 1017.5
20260503020003 45 0 0.0 0.0 0.00 0.00 0.00 83 1017.4
20260503015503 45 0 0.0 0.0 0.00 0.00 0.00 82 1017.3
20260503015003 45 0 0.0 0.0 0.00 0.00 0.00 82 1017.2
20260503014503 45 0 0.0 0.0 0.00 0.00 0.00 81 1017.2